STARLINK-30298, 57665

Orbit data source: Space-Track

STARLINK-30298, 57665 is a payload satellite owned by SpaceX/Seattle (US) in LEO that was launched on Tue, 22 Aug 2023 UTC via an FALCON 9 launch vehicle from the Air Force Western Test Range (AFWTR). Payload-class satellites include a variety of spacecraft equipped with specific instruments for various scientific and technological missions. These include communications satellites like Starlink; space stations such as the ISS; scientific satellites like the Hubble; Earth observation satellites from companies like Planet Labs, Umbra, and HawkEye 360; GPS; miniature CubeSats for education and research; and military/defense satellites.

Loading next visibility...
Identifier
57665, 2023-124C
Orbit
LEO
Country
Flag of USUS
Related business
Manufacturer
SpaceX/Seattle
Mission
Operational Commercial Communications
Bus & Motor
STARLINK V2M, Unknown motor
Mass
730 kg wet, ~700 kg dry
Launch date (UTC)
2023-08-22 (3 years ago)
Launch vehicle
FALCON 9
Launch site
Air Force Western Test Range (AFWTR)
Object type
Payload
Rocket body
Debris
Shape & HBR
Box + 2 Pan, 17.7 m
Radar Cross Section
33.884 m², Large (>1 m²)

Expand to show TLE details & history
Last TLE update: 2 days ago

TLE from 2 days ago
0 STARLINK-30298
1 57665U 23124C   26171.41668980 -.00022953  00000-0 -68848-3 0  9990
2 57665  53.1590  89.8189 0001132  89.9066 267.6080 15.33559052  5880
Epoch: 2026-06-20T10:00Z
TLE epoch observation values (Epoch: 2026-06-20T10:00:01.998Z)
Latitude
-2.09217°
Longitude
29.61927°
Altitude
466.433 km
Speed
7.634 km/s
True Right ascension
05h 53m 02s
True Declination
-2° 04' 45"
Sunlit
Object was in daylight at epoch
Visualization orbit readout
Latitude
Unknown
Longitude
Unknown
Altitude
Unknown
Speed
Unknown
Apparent Right ascension
Unknown
Apparent Declination
Unknown
Sunlit
N/A
Visualization observer readout
Local Sidereal Time
21:27:43
Azimuth
Unknown
Elevation
Unknown
Doppler factor
Unknown
Orbital elements
Apogee altitude
466.236 km
Perigee altitude
464.686 km
Semi-major axis
6,843.598 km
Eccentricity
0.00011
Inclination
53.159°
RAAN
89.8189°
Arg. of periapsis
89.9066°
True anomaly
267.59504°
Mean anomaly
267.608°
Eccentric anomaly
267.60152°
Mean motion
3.83369 °/min
Orbital period
93.9 mins
BSTAR
-0.00068848
Loading maneuver chart data...
Computing Atmospheric mass density...
Loading historical data...
Loading historical data...
Loading historical data...
Loading historical data...
Loading historical data...
Loading historical data...
Loading historical data...

Documentation

Showing up to 5 results
|